Change the Weather History Date:

Tuesday, August 20, 2013

  Actual Average (LTCC) Record (LTCC)
Temperature  
Mean Temperature 84 °F -  
Max Temperature 100 °F 98 °F 105 °F (2010)
Min Temperature 68 °F 69 °F 64 °F (1998)
Cooling Degree Days 19    
Growing Degree Days 34 (Base 50)    
Moisture  
Dew Point 45 °F    
Average Humidity 29    
Maximum Humidity 56    
Minimum Humidity 10    
Precipitation  
Precipitation 0.00 in - - ()
Sea Level Pressure  
Sea Level Pressure 29.68 in    
Wind  
Wind Speed 5 mph ()    
Max Wind Speed 14 mph    
Max Gust Speed -    
Visibility 6.2 miles    
Events      
Averages and records for this station are not official NWS values.
T = Trace of Precipitation, MM = Missing Value Source: Averaged Metar Reports

Daily Weather History Graph

Daily Weather History Graph

Search for Another Location

Airport or City:

Trip Planner

Search our weather history database for the weather conditions in past years. The results will help you decide how hot, cold, wet, or windy it might be!

Date:

Astronomy

Aug. 20, 2013 Rise Set
Actual Time 5:35 AM EEST 7:02 PM EEST
Civil Twilight 5:07 AM EEST 7:29 PM EEST
Nautical Twilight 4:34 AM EEST 8:02 PM EEST
Astronomical Twilight 3:59 AM EEST 8:37 PM EEST
Moon 6:20 PM EEST (8/20) 4:39 AM EEST (8/20)
Length of Visible Light 14h 22m
Length of Day
13h 27m
Waxing Gibbous, 99% of the Moon is Illuminated
Aug 20
Waxing Gibbous
Aug 21
Full
Aug 28
Last Quarter
Sep 5
New
Sep 12
First Quarter

Hourly Weather History & Observations

Time (EEST) Temp. Dew Point Humidity Pressure Visibility Wind Dir Wind Speed Gust Speed Precip Events Conditions
12:20 AM 75.2 °F 53.6 °F 47% 29.65 in 6.2 mi NNE 6.9 mph - N/A   Scattered Clouds
12:50 AM 75.2 °F 53.6 °F 47% 29.65 in - NNE 8.1 mph - N/A   Clear
1:20 AM 73.4 °F 53.6 °F 50% 29.68 in - NE 6.9 mph - N/A   Clear
1:50 AM 75.2 °F 50.0 °F 41% 29.68 in - Variable 4.6 mph - N/A   Clear
2:20 AM 73.4 °F 51.8 °F 47% 29.68 in - Calm Calm - N/A   Clear
3:20 AM 73.4 °F 50.0 °F 44% 29.68 in - Variable 1.2 mph - N/A   Clear
3:50 AM 73.4 °F 50.0 °F 44% 29.68 in - Variable 1.2 mph - N/A   Clear
4:20 AM 69.8 °F 53.6 °F 56% 29.68 in - Variable 2.3 mph - N/A   Clear
4:50 AM 69.8 °F 53.6 °F 56% 29.68 in - Variable 3.5 mph - N/A   Clear
5:20 AM 69.8 °F 51.8 °F 53% 29.68 in - South 4.6 mph - N/A   Clear
5:50 AM 68.0 °F 51.8 °F 56% 29.71 in - SSW 4.6 mph - N/A   Clear
6:20 AM 68.0 °F 51.8 °F 56% 29.71 in - SSW 3.5 mph - N/A   Clear
6:50 AM 69.8 °F 50.0 °F 49% 29.71 in - South 4.6 mph - N/A   Clear
7:20 AM 71.6 °F 51.8 °F 50% 29.74 in - SSW 3.5 mph - N/A   Clear
7:50 AM 75.2 °F 50.0 °F 41% 29.74 in - SW 4.6 mph - N/A   Clear
8:20 AM 78.8 °F 50.0 °F 36% 29.74 in - SW 5.8 mph - N/A   Clear
8:50 AM 82.4 °F 48.2 °F 30% 29.74 in - SW 6.9 mph - N/A   Clear
9:20 AM 84.2 °F 48.2 °F 29% 29.71 in - SW 6.9 mph - N/A   Clear
9:50 AM 87.8 °F 48.2 °F 25% 29.71 in - West 4.6 mph - N/A   Clear
10:20 AM 91.4 °F 48.2 °F 23% 29.71 in - West 4.6 mph - N/A   Clear
10:50 AM 95.0 °F 46.4 °F 19% 29.71 in - Variable 2.3 mph - N/A   Clear
11:20 AM 96.8 °F 42.8 °F 16% 29.71 in 6.2 mi Variable 2.3 mph - N/A   Partly Cloudy
11:50 AM 98.6 °F 42.8 °F 15% 29.71 in 6.2 mi Variable 2.3 mph - N/A   Partly Cloudy
12:20 PM 98.6 °F 41.0 °F 14% 29.68 in 6.2 mi Variable 4.6 mph - N/A   Scattered Clouds
12:50 PM 98.6 °F 35.6 °F 11% 29.68 in 6.2 mi SE 11.5 mph - N/A   Scattered Clouds
1:20 PM 98.6 °F 35.6 °F 11% 29.68 in 6.2 mi SE 11.5 mph - N/A   Scattered Clouds
1:50 PM 89.6 °F 35.6 °F 15% 29.68 in 6.2 mi SE 11.5 mph - N/A   Scattered Clouds
2:20 PM 100.4 °F 37.4 °F 11% 29.65 in 6.2 mi SSE 13.8 mph - N/A   Scattered Clouds
2:50 PM 100.4 °F 37.4 °F 11% 29.65 in 6.2 mi SSE 9.2 mph - N/A   Scattered Clouds
3:20 PM 100.4 °F 37.4 °F 11% 29.65 in 6.2 mi South 10.4 mph - N/A   Scattered Clouds
3:50 PM 100.4 °F 35.6 °F 11% 29.62 in 6.2 mi SSE 9.2 mph - N/A   Scattered Clouds
4:20 PM 100.4 °F 35.6 °F 11% 29.62 in 6.2 mi South 5.8 mph - N/A   Scattered Clouds
4:50 PM 100.4 °F 37.4 °F 11% 29.62 in 6.2 mi South 11.5 mph - N/A   Partly Cloudy
5:20 PM 98.6 °F 33.8 °F 10% 29.62 in 6.2 mi South 9.2 mph - N/A   Partly Cloudy
5:50 PM 98.6 °F 32.0 °F 10% 29.62 in 6.2 mi South 6.9 mph - N/A   Partly Cloudy
6:20 PM 96.8 °F 33.8 °F 11% 29.62 in - South 9.2 mph - N/A   Clear
6:50 PM 91.4 °F 44.6 °F 20% 29.65 in - SW 6.9 mph - N/A   Clear
7:20 PM 87.8 °F 48.2 °F 25% 29.65 in - WSW 5.8 mph - N/A   Clear
7:50 PM 84.2 °F 46.4 °F 27% 29.68 in - WSW 3.5 mph - N/A   Clear
8:20 PM 84.2 °F 44.6 °F 25% 29.68 in - Variable 1.2 mph - N/A   Clear
8:50 PM 84.2 °F 42.8 °F 23% 29.68 in - Variable 2.3 mph - N/A   Clear
9:20 PM 82.4 °F 42.8 °F 25% 29.68 in - Calm Calm - N/A   Clear
9:50 PM 78.8 °F 44.6 °F 30% 29.71 in - Variable 1.2 mph - N/A   Clear
10:20 PM 78.8 °F 48.2 °F 34% 29.71 in - WSW 5.8 mph - N/A   Clear
10:50 PM 78.8 °F 44.6 °F 30% 29.71 in - South 3.5 mph - N/A   Clear
11:20 PM 78.8 °F 46.4 °F 32% 29.71 in - Calm Calm - N/A   Clear
11:50 PM 78.8 °F 44.6 °F 30% 29.71 in - SW 2.3 mph - N/A   Clear